Карточка аэропорта UNWW

Внимание!
Информация на этой странице в стадии наполнения.
Если вы не увидели какой-то информации, или заметили неточность - пожалуйста сообщите нам!
Спасибо!
Команда XR-STAFF
Название аэропортаСпиченково
Название аэропорта (англ.)Spichenkovo
Превышение1023 ft. (311.8 m.)
Координаты53°48.714', 86°52.704'
Высота перехода800m
Эшелон переходаFL050
Коды ответчика5270-5277
Зона ОрВДНовосибирск РПИ (UNNT)
Данные METARUNWW 232100Z 36002MPS CAVOK 06/04 Q1023 R19/09//60 NOSIG RMK QFE740
Проноз погоды (TAF)UNWW 232000Z 2321/2421 04003G08MPS 8000 SCT040 TEMPO 2321/2402 0500 FG
NOTAMshow/hide NOTAM
AWOS   TABLE

Информация о ВПП

ВПП Длина ВПП (м.) Покрытие Курс ВПП Частота ILS
012679Цементобетон14 
192679Цементобетон194111.1

Диспетчерские позиции

Позывной Наименование органа УВД Частота
UNWW_TWRНовокузнецк-Старт121.2
UNWW_APPНовокузнецк-Подход118.6



Спутниковое изображение